Location: Cahas Mountain Overlook
(37.0833°N, 80.1000°W)
Time: 16:33:16
(UTC-05:00)

ISS - Pass Details

Date: 05 December 2021
Orbit: 413 x 422 km, 51.6° (Epoch: 28 January)

Event Time Altitude Azimuth Distance (km) Brightness Sun altitude
Rises 18:50:32 0° 312° (NW) 2,378 0.6 -20.9°
Reaches altitude 10° 18:52:40 10° 315° (NW) 1,508 -0.5 -21.3°
Enters shadow 18:54:57 39° 328° (NNW) 651 -2.7 -21.7°
